TimeEST,TemperatureF,Dew PointF,Humidity,Sea Level PressureIn,VisibilityMPH,Wind Direction,Wind SpeedMPH,Gust SpeedMPH,PrecipitationIn,Events,Conditions,WindDirDegrees,DateUTC
12:53 AM,-9999,-9999,N/A,30.11,10.0,NNE,12.7,-,N/A,,Mostly Cloudy,30,2012-12-01 05:53:00
1:53 AM,-9999,-9999,N/A,30.12,10.0,NE,10.4,-,N/A,,Overcast,50,2012-12-01 06:53:00
2:19 AM,-9999,-9999,N/A,30.11,10.0,ENE,11.5,19.6,0.00,,Overcast,70,2012-12-01 07:19:00
2:27 AM,-9999,-9999,N/A,30.10,9.0,ENE,10.4,-,0.00,,Overcast,70,2012-12-01 07:27:00
2:53 AM,-9999,-9999,N/A,30.11,9.0,NE,10.4,18.4,0.01,,Overcast,50,2012-12-01 07:53:00
3:53 AM,-9999,-9999,N/A,30.09,10.0,NE,11.5,-,N/A,,Overcast,40,2012-12-01 08:53:00
5:53 AM,-9999,-9999,N/A,30.11,10.0,NNE,9.2,-,N/A,,Mostly Cloudy,30,2012-12-01 10:53:00
7:53 AM,-9999,-9999,N/A,30.14,10.0,NE,11.5,-,N/A,,Clear,40,2012-12-01 12:53:00
8:53 AM,-9999,-9999,N/A,30.14,10.0,NE,12.7,-,N/A,,Clear,40,2012-12-01 13:53:00
9:53 AM,-9999,-9999,N/A,30.17,10.0,NNE,9.2,-,N/A,,Clear,30,2012-12-01 14:53:00
11:53 AM,-9999,-9999,N/A,30.14,10.0,NE,10.4,-,N/A,,Partly Cloudy,40,2012-12-01 16:53:00
12:53 PM,-9999,-9999,N/A,30.14,10.0,ENE,16.1,-,N/A,,Partly Cloudy,60,2012-12-01 17:53:00
1:30 PM,-9999,-9999,N/A,30.12,10.0,ENE,15.0,24.2,N/A,,Mostly Cloudy,60,2012-12-01 18:30:00
1:51 PM,-9999,-9999,N/A,30.11,9.0,ENE,11.5,-,0.01,,Overcast,60,2012-12-01 18:51:00
1:53 PM,-9999,-9999,N/A,30.12,9.0,ENE,11.5,-,0.01,,Overcast,60,2012-12-01 18:53:00
2:53 PM,-9999,-9999,N/A,30.12,10.0,NE,15.0,-,0.00,,Partly Cloudy,50,2012-12-01 19:53:00
3:53 PM,-9999,-9999,N/A,30.12,10.0,ENE,13.8,-,N/A,,Clear,60,2012-12-01 20:53:00
4:53 PM,75.0,62.1,64,30.11,10.0,ENE,15.0,-,N/A,,Clear,60,2012-12-01 21:53:00
5:53 PM,73.9,62.1,66,30.12,10.0,NE,12.7,-,N/A,,Clear,50,2012-12-01 22:53:00
6:53 PM,73.0,61.0,66,30.13,10.0,NE,12.7,-,N/A,,Clear,50,2012-12-01 23:53:00
7:53 PM,73.0,62.1,68,30.14,10.0,NE,11.5,-,N/A,,Clear,50,2012-12-02 00:53:00
8:53 PM,72.0,62.1,71,30.15,10.0,NE,10.4,-,N/A,,Clear,50,2012-12-02 01:53:00
9:53 PM,72.0,64.0,76,30.15,10.0,NE,6.9,-,N/A,,Clear,40,2012-12-02 02:53:00
10:53 PM,72.0,64.0,76,30.16,10.0,NNE,6.9,-,N/A,,Partly Cloudy,30,2012-12-02 03:53:00
11:53 PM,71.1,64.9,81,30.15,10.0,NNE,6.9,-,N/A,,Clear,30,2012-12-02 04:53:00